Location: Montreal
(45.5087°N, 73.5540°W)
Time: 22:24:41
(UTC-04:00)

N. Korean satellite - Visible Passes

Search period start: 17 October 2018 00:00
Search period end: 27 October 2018 00:00
Orbit: 459 x 510 km, 97.2° (Epoch: 16 October)

Date Brightness Start Highest point End Pass type
(mag) Time Alt. Az. Time Alt. Az. Time Alt. Az.
17 Oct 9.6 19:19:02 10° SW 19:21:53 20° W 19:24:45 10° NW visible
18 Oct 8.3 18:53:50 10° SSW 18:57:19 38° W 19:00:52 10° NNW visible
19 Oct 10.1 06:19:29 10° NE 06:21:40 15° E 06:23:49 10° SE visible
19 Oct 6.9 18:29:08 10° S 18:32:52 78° WSW 18:36:38 10° NNW visible
20 Oct 10.3 19:40:39 10° WSW 19:42:14 12° W 19:43:50 10° WNW visible
21 Oct 9.4 19:14:37 10° SSW 19:17:36 23° W 19:20:37 10° NW visible
22 Oct 9.4 06:38:55 10° NE 06:41:59 25° E 06:44:59 10° SSE visible
22 Oct 8.1 18:49:30 10° S 18:53:04 43° W 18:56:40 10° NNW visible
23 Oct 10.2 06:15:31 10° ENE 06:17:21 13° E 06:19:10 10° ESE visible
23 Oct 6.7 18:24:52 10° SSE 18:28:36 87° WSW 18:32:22 10° NNW visible
24 Oct 10.2 19:35:59 10° WSW 19:37:55 14° W 19:39:52 10° WNW visible
25 Oct 9.2 19:10:10 10° SSW 19:13:18 25° W 19:16:26 10° NW visible
26 Oct 9.5 06:34:45 10° NE 06:37:38 22° E 06:40:29 10° SSE visible
26 Oct 7.8 18:45:08 10° S 18:48:45 48° W 18:52:24 10° NNW visible
